Fort Campbell, KY

9:38 PM CDT on September 19, 2017 (GMT -0500)
Campbell Army Air Field

Weather History for KHOP - July, 2013

Change the Weather History Date:

Monday, July 15, 2013

  Actual Average Record
Temperature  
Mean Temperature 80 °F -  
Max Temperature 88 °F 86 °F 94 °F (2010)
Min Temperature 72 °F 67 °F 60 °F (2001)
Cooling Degree Days 15    
Growing Degree Days 30 (Base 50)    
Moisture  
Dew Point 71 °F    
Average Humidity 74    
Maximum Humidity 100    
Minimum Humidity 54    
Precipitation  
Precipitation 0.00 in - - ()
Sea Level Pressure  
Sea Level Pressure 30.23 in    
Wind  
Wind Speed 7 mph (SE)    
Max Wind Speed 13 mph    
Max Gust Speed 16 mph    
Visibility 10 miles    
Events      
Averages and records for this station are not official NWS values.
T = Trace of Precipitation, MM = Missing Value Source: NWS Daily Summary

Daily Weather History Graph

Daily Weather History Graph

Search for Another Location

Airport or City:

Trip Planner

Search our weather history database for the weather conditions in past years. The results will help you decide how hot, cold, wet, or windy it might be!

Date:

Astronomy

Jul. 15, 2013 Rise Set
Actual Time 5:43 AM CDT 8:08 PM CDT
Civil Twilight 5:13 AM CDT 8:38 PM CDT
Nautical Twilight 4:36 AM CDT 9:14 PM CDT
Astronomical Twilight 3:56 AM CDT 9:55 PM CDT
Moon 12:49 PM CDT (7/15) No Moon Set
Length of Visible Light 15h 24m
Length of Day
14h 25m
Waxing Crescent, 45% of the Moon is Illuminated
Jul 15
Waxing Crescent
Jul 15
First Quarter
Jul 22
Full
Jul 29
Last Quarter
Aug 6
New

Hourly Weather History & Observations

Time (CDT) Temp. Heat Index Dew Point Humidity Pressure Visibility Wind Dir Wind Speed Gust Speed Precip Events Conditions
12:58 AM 75.6 °F - 73.8 °F 94% 30.17 in 10.0 mi ESE 5.8 mph - N/A   Partly Cloudy
1:58 AM 74.3 °F - 74.3 °F 100% 30.17 in 10.0 mi East 8.1 mph - N/A   Mostly Cloudy
2:58 AM 73.9 °F - 73.9 °F 100% 30.16 in 10.0 mi East 4.6 mph - N/A   Clear
3:58 AM 73.0 °F - 73.0 °F 100% 30.17 in 10.0 mi East 5.8 mph - N/A   Clear
4:58 AM 73.0 °F - 73.0 °F 100% 30.19 in 10.0 mi East 5.8 mph - N/A   Clear
5:58 AM 72.5 °F - 72.5 °F 100% 30.21 in 10.0 mi East 4.6 mph - N/A   Clear
6:58 AM 74.8 °F - 73.2 °F 95% 30.23 in 10.0 mi East 4.6 mph - N/A   Clear
7:58 AM 78.1 °F - 72.0 °F 81% 30.24 in 10.0 mi SE 8.1 mph - N/A   Clear
8:58 AM 80.2 °F 83.9 °F 71.2 °F 74% 30.24 in 10.0 mi SSE 10.4 mph - N/A   Partly Cloudy
9:16 AM 80.6 °F 84.6 °F 71.6 °F 74% 30.25 in 10.0 mi SE 12.7 mph - N/A   Mostly Cloudy
9:48 AM 82.4 °F 87.2 °F 71.6 °F 70% 30.26 in 10.0 mi SSE 11.5 mph - N/A   Mostly Cloudy
9:49 AM 82.4 °F 87.2 °F 71.6 °F 70% 30.26 in 10.0 mi SSE 11.5 mph - N/A   Mostly Cloudy
9:52 AM 82.4 °F 87.2 °F 71.6 °F 70% 30.26 in 10.0 mi SSE 10.4 mph - N/A   Scattered Clouds
9:54 AM 82.4 °F 87.2 °F 71.6 °F 70% 30.26 in 10.0 mi South 9.2 mph - N/A   Mostly Cloudy
9:58 AM 81.7 °F 86.0 °F 71.4 °F 71% 30.25 in 10.0 mi South 9.2 mph - N/A   Mostly Cloudy
10:11 AM 82.4 °F 87.2 °F 71.6 °F 70% 30.26 in 10.0 mi SSE 10.4 mph - N/A   Mostly Cloudy
10:12 AM 82.4 °F 87.2 °F 71.6 °F 70% 30.26 in 10.0 mi South 8.1 mph - N/A   Mostly Cloudy
10:19 AM 82.4 °F 87.2 °F 71.6 °F 70% 30.26 in 10.0 mi SE 10.4 mph - N/A   Mostly Cloudy
10:20 AM 82.4 °F 87.2 °F 71.6 °F 70% 30.26 in 10.0 mi SSE 11.5 mph - N/A   Mostly Cloudy
10:21 AM 82.4 °F 87.2 °F 71.6 °F 70% 30.26 in 10.0 mi South 11.5 mph - N/A   Mostly Cloudy
10:26 AM 82.4 °F 87.2 °F 71.6 °F 70% 30.26 in 10.0 mi South 10.4 mph - N/A   Mostly Cloudy
10:27 AM 82.4 °F 87.2 °F 71.6 °F 70% 30.26 in 10.0 mi South 8.1 mph - N/A   Mostly Cloudy
10:58 AM 82.6 °F 87.1 °F 71.2 °F 68% 30.26 in 10.0 mi South 10.4 mph - N/A   Mostly Cloudy
11:58 AM 82.8 °F 87.2 °F 70.9 °F 67% 30.25 in 10.0 mi SSE 9.2 mph - N/A   Mostly Cloudy
12:58 PM 83.7 °F 88.9 °F 71.6 °F 67% 30.24 in 10.0 mi East 6.9 mph - N/A   Mostly Cloudy
1:58 PM 85.1 °F 90.4 °F 71.2 °F 63% 30.23 in 10.0 mi ESE 8.1 mph - N/A   Mostly Cloudy
2:58 PM 85.1 °F 89.4 °F 70.0 °F 60% 30.21 in 10.0 mi Variable 5.8 mph - N/A   Scattered Clouds
3:58 PM 88.0 °F 92.5 °F 69.6 °F 54% 30.20 in 10.0 mi ESE 11.5 mph 16.1 mph N/A   Partly Cloudy
4:58 PM 86.7 °F 91.0 °F 69.3 °F 56% 30.19 in 10.0 mi ESE 9.2 mph - N/A   Partly Cloudy
5:58 PM 86.4 °F 90.4 °F 68.9 °F 56% 30.19 in 10.0 mi SE 8.1 mph - N/A   Partly Cloudy
6:58 PM 86.2 °F 89.7 °F 68.4 °F 55% 30.20 in 10.0 mi ESE 8.1 mph - N/A   Clear
7:58 PM 83.8 °F 87.5 °F 69.1 °F 61% 30.21 in 10.0 mi East 3.5 mph - N/A   Clear
8:21 PM 82.4 °F 86.3 °F 69.8 °F 66% 30.22 in 10.0 mi East 2.3 mph - N/A   Light Drizzle
8:32 PM 82.4 °F 86.3 °F 69.8 °F 66% 30.22 in 10.0 mi East 2.3 mph - N/A   Clear
8:58 PM 79.7 °F - 69.3 °F 70% 30.23 in 10.0 mi ENE 2.3 mph - 0.00 in   Clear
9:58 PM 77.5 °F - 70.2 °F 78% 30.24 in 10.0 mi NE 2.3 mph - N/A   Clear
10:58 PM 75.0 °F - 71.8 °F 90% 30.25 in 10.0 mi NE 3.5 mph - N/A   Clear
11:58 PM 73.9 °F - 71.6 °F 92% 30.25 in 10.0 mi East 3.5 mph - N/A   Clear